Change the Weather History Date:

Saturday, April 5, 2014

  Actual Average Record
Temperature  
Mean Temperature 40 °F -  
Max Temperature 55 °F 56 °F 79 °F (1954)
Min Temperature 24 °F 32 °F 15 °F (1971)
Degree Days  
Heating Degree Days 26    
Moisture  
Dew Point 26 °F    
Average Humidity 62    
Maximum Humidity 100    
Minimum Humidity 26    
Precipitation  
Precipitation 0.00 in - - ()
Sea Level Pressure  
Sea Level Pressure 30.13 in    
Wind  
Wind Speed 6 mph (SSW)    
Max Wind Speed 13 mph    
Max Gust Speed 17 mph    
Visibility 10 miles    
Events      
Averages and records for this station are not official NWS values.
T = Trace of Precipitation, MM = Missing Value Source: NWS Daily Summary

Daily Weather History Graph

Daily Weather History Graph

Search for Another Location

Airport or City:

Trip Planner

Search our weather history database for the weather conditions in past years. The results will help you decide how hot, cold, wet, or windy it might be!

Date:

Astronomy

Apr. 05, 2014 Rise Set
Actual Time 6:50 AM CDT 7:42 PM CDT
Civil Twilight 6:22 AM CDT 8:10 PM CDT
Nautical Twilight 5:49 AM CDT 8:43 PM CDT
Astronomical Twilight 5:14 AM CDT 9:18 PM CDT
Moon 10:56 AM CDT (4/5) 12:54 AM CDT (4/5)
Length of Visible Light 13h 48m
Length of Day
12h 52m
Waxing Crescent, 34% of the Moon is Illuminated
Apr 5
Waxing Crescent
Apr 7
First Quarter
Apr 15
Full
Apr 22
Last Quarter
Apr 29
New

Hourly Weather History & Observations

Time (CDT) Temp. Windchill Dew Point Humidity Pressure Visibility Wind Dir Wind Speed Gust Speed Precip Events Conditions
12:15 AM 33.8 °F 28.6 °F 26.6 °F 75% 30.15 in 10.0 mi West 5.8 mph - N/A   Overcast
12:35 AM 33.8 °F 28.6 °F 26.6 °F 75% 30.15 in 10.0 mi WNW 5.8 mph - N/A   Overcast
12:55 AM 32.0 °F 26.4 °F 26.6 °F 80% 30.15 in 10.0 mi WNW 5.8 mph - N/A   Overcast
1:15 AM 32.0 °F 25.6 °F 26.6 °F 80% 30.15 in 10.0 mi WNW 6.9 mph - N/A   Overcast
1:35 AM 32.0 °F 27.5 °F 26.6 °F 80% 30.16 in 10.0 mi West 4.6 mph - N/A   Overcast
1:55 AM 32.0 °F 27.5 °F 26.6 °F 80% 30.16 in 10.0 mi WNW 4.6 mph - N/A   Overcast
2:15 AM 32.0 °F 27.5 °F 26.6 °F 80% 30.16 in 10.0 mi West 4.6 mph - N/A   Mostly Cloudy
2:35 AM 32.0 °F 26.4 °F 26.6 °F 80% 30.16 in 10.0 mi West 5.8 mph - N/A   Partly Cloudy
2:55 AM 32.0 °F 25.6 °F 24.8 °F 75% 30.16 in 10.0 mi West 6.9 mph - N/A   Partly Cloudy
3:15 AM 30.2 °F 24.3 °F 24.8 °F 80% 30.16 in 10.0 mi West 5.8 mph - N/A   Partly Cloudy
3:35 AM 30.2 °F 24.3 °F 24.8 °F 80% 30.15 in 10.0 mi WSW 5.8 mph - N/A   Partly Cloudy
3:55 AM 30.2 °F 24.3 °F 24.8 °F 80% 30.16 in 10.0 mi WSW 5.8 mph - N/A   Clear
4:15 AM 30.2 °F 25.4 °F 24.8 °F 80% 30.15 in 10.0 mi West 4.6 mph - N/A   Partly Cloudy
4:35 AM 30.2 °F 25.4 °F 24.8 °F 80% 30.15 in 10.0 mi WSW 4.6 mph - N/A   Partly Cloudy
4:55 AM 24.8 °F 20.5 °F 23.0 °F 93% 30.14 in 10.0 mi SSW 3.5 mph - N/A   Scattered Clouds
5:15 AM 24.8 °F 20.5 °F 23.0 °F 93% 30.14 in 10.0 mi SSW 3.5 mph - N/A   Partly Cloudy
5:35 AM 24.8 °F 20.5 °F 23.0 °F 93% 30.15 in 10.0 mi SSW 3.5 mph - N/A   Partly Cloudy
5:55 AM 24.8 °F - 23.0 °F 93% 30.15 in 10.0 mi Calm Calm - N/A   Scattered Clouds
6:15 AM 24.8 °F - 23.0 °F 93% 30.15 in 10.0 mi Calm Calm - N/A   Partly Cloudy
6:35 AM 24.8 °F 17.9 °F 23.0 °F 93% 30.16 in 10.0 mi South 5.8 mph - N/A   Clear
6:55 AM 24.8 °F 20.5 °F 23.0 °F 93% 30.16 in 10.0 mi South 3.5 mph - N/A   Clear
7:15 AM 24.8 °F 17.9 °F 24.8 °F 100% 30.17 in 10.0 mi South 5.8 mph - N/A   Clear
7:35 AM 26.6 °F 21.2 °F 24.8 °F 93% 30.18 in 10.0 mi South 4.6 mph - N/A   Clear
7:55 AM 28.4 °F 23.3 °F 26.6 °F 93% 30.18 in 10.0 mi SSW 4.6 mph - N/A   Clear
8:15 AM 30.2 °F 26.7 °F 28.4 °F 93% 30.19 in 10.0 mi SSW 3.5 mph - N/A   Clear
8:35 AM 33.8 °F - 28.4 °F 81% 30.20 in 10.0 mi Calm Calm - N/A   Clear
8:55 AM 33.8 °F 30.8 °F 30.2 °F 87% 30.19 in 10.0 mi SSE 3.5 mph - N/A   Clear
9:15 AM 35.6 °F 30.7 °F 30.2 °F 81% 30.20 in 10.0 mi SSW 5.8 mph - N/A   Clear
9:35 AM 37.4 °F 32.1 °F 30.2 °F 75% 30.20 in 10.0 mi South 6.9 mph - N/A   Clear
9:55 AM 39.2 °F 33.0 °F 28.4 °F 65% 30.20 in 10.0 mi SSW 9.2 mph - N/A   Clear
10:15 AM 41.0 °F 33.9 °F 28.4 °F 61% 30.21 in 10.0 mi SSW 12.7 mph - N/A   Clear
10:35 AM 41.0 °F 34.7 °F 28.4 °F 61% 30.20 in 10.0 mi South 10.4 mph - N/A   Clear
10:55 AM 41.0 °F 34.7 °F 28.4 °F 61% 30.20 in 10.0 mi SSW 10.4 mph - N/A   Clear
11:15 AM 42.8 °F 39.3 °F 28.4 °F 57% 30.20 in 10.0 mi Variable 5.8 mph 13.8 mph N/A   Clear
11:35 AM 44.6 °F 40.7 °F 28.4 °F 53% 30.20 in 10.0 mi WSW 6.9 mph 15.0 mph N/A   Clear
11:55 AM 44.6 °F 41.4 °F 28.4 °F 53% 30.19 in 10.0 mi Variable 5.8 mph 11.5 mph N/A   Clear
12:15 PM 44.6 °F 42.2 °F 28.4 °F 53% 30.18 in 10.0 mi Variable 4.6 mph 11.5 mph N/A   Clear
12:35 PM 46.4 °F 42.9 °F 28.4 °F 50% 30.17 in 10.0 mi Variable 6.9 mph - N/A   Clear
12:55 PM 48.2 °F - 28.4 °F 46% 30.17 in 10.0 mi Variable 6.9 mph 12.7 mph N/A   Clear
1:15 PM 48.2 °F - 28.4 °F 46% 30.15 in 10.0 mi Calm Calm - N/A   Clear
1:35 PM 48.2 °F - 26.6 °F 43% 30.15 in 10.0 mi Calm Calm - N/A   Clear
1:55 PM 50.0 °F - 26.6 °F 40% 30.14 in 10.0 mi SSW 6.9 mph - N/A   Clear
2:15 PM 51.8 °F - 26.6 °F 38% 30.13 in 10.0 mi SE 8.1 mph 13.8 mph N/A   Clear
2:35 PM 51.8 °F - 23.0 °F 33% 30.12 in 10.0 mi Calm Calm 12.7 mph N/A   Clear
2:55 PM 53.6 °F - 24.8 °F 33% 30.11 in 10.0 mi South 6.9 mph 13.8 mph N/A   Clear
3:15 PM 53.6 °F - 23.0 °F 30% 30.11 in 10.0 mi Variable 6.9 mph 13.8 mph N/A   Clear
3:35 PM 55.4 °F - 24.8 °F 31% 30.09 in 10.0 mi SE 11.5 mph - N/A   Clear
3:55 PM 53.6 °F - 24.8 °F 33% 30.09 in 10.0 mi South 11.5 mph - N/A   Clear
4:15 PM 55.4 °F - 24.8 °F 31% 30.08 in 10.0 mi South 11.5 mph - N/A   Clear
4:35 PM 55.4 °F - 24.8 °F 31% 30.08 in 10.0 mi SSE 11.5 mph 17.3 mph N/A   Clear
4:55 PM 55.4 °F - 23.0 °F 29% 30.07 in 10.0 mi SE 10.4 mph - N/A   Clear
5:15 PM 55.4 °F - 23.0 °F 29% 30.07 in 10.0 mi SE 8.1 mph - N/A   Clear
5:35 PM 55.4 °F - 21.2 °F 26% 30.07 in 10.0 mi SE 11.5 mph - N/A   Clear
5:55 PM 55.4 °F - 23.0 °F 29% 30.07 in 10.0 mi South 11.5 mph - N/A   Clear
6:15 PM 55.4 °F - 24.8 °F 31% 30.06 in 10.0 mi South 12.7 mph - N/A   Clear
6:30 PM 55.4 °F - 24.8 °F 31% 30.06 in 10.0 mi South 10.4 mph 17.3 mph N/A   Clear
6:55 PM 53.6 °F - 26.6 °F 35% 30.06 in 10.0 mi South 8.1 mph - N/A   Clear
7:35 PM 48.2 °F - 26.6 °F 43% 30.06 in 10.0 mi South 6.9 mph - N/A   Clear
7:55 PM 46.4 °F 42.4 °F 26.6 °F 46% 30.06 in 10.0 mi SSE 8.1 mph - N/A   Clear
8:15 PM 46.4 °F 42.9 °F 26.6 °F 46% 30.05 in 10.0 mi South 6.9 mph - N/A   Mostly Cloudy
8:35 PM 44.6 °F 41.4 °F 26.6 °F 49% 30.06 in 10.0 mi SSE 5.8 mph - N/A   Scattered Clouds
8:55 PM 42.8 °F 38.0 °F 26.6 °F 53% 30.06 in 10.0 mi South 8.1 mph - N/A   Partly Cloudy
9:15 PM 42.8 °F 38.0 °F 28.4 °F 57% 30.07 in 10.0 mi South 8.1 mph - N/A   Clear
9:35 PM 42.8 °F 37.5 °F 28.4 °F 57% 30.06 in 10.0 mi South 9.2 mph - N/A   Mostly Cloudy
9:50 PM 42.8 °F 37.0 °F 28.4 °F 57% 30.06 in 10.0 mi South 10.4 mph - N/A   Mostly Cloudy
10:15 PM 42.8 °F 36.2 °F 28.4 °F 57% 30.06 in 10.0 mi South 12.7 mph - N/A   Mostly Cloudy
10:35 PM 42.8 °F 36.6 °F 30.2 °F 61% 30.06 in 10.0 mi South 11.5 mph - N/A   Overcast
10:55 PM 42.8 °F 36.6 °F 30.2 °F 61% 30.05 in 10.0 mi South 11.5 mph - N/A   Overcast
11:15 PM 44.6 °F 38.4 °F 30.2 °F 57% 30.05 in 10.0 mi South 12.7 mph - N/A   Overcast
11:35 PM 44.6 °F 38.8 °F 30.2 °F 57% 30.05 in 10.0 mi South 11.5 mph - N/A   Overcast
11:55 PM 42.8 °F 37.0 °F 30.2 °F 61% 30.05 in 10.0 mi SSE 10.4 mph - N/A   Mostly Cloudy